TimeCST,TemperatureF,Dew PointF,Humidity,Sea Level PressureIn,VisibilityMPH,Wind Direction,Wind SpeedMPH,Gust SpeedMPH,PrecipitationIn,Events,Conditions,WindDirDegrees,DateUTC
2:54 AM,34.0,30.9,89,30.12,10.0,East,6.9,-,N/A,,Clear,90,2012-12-06 08:54:00
3:54 AM,33.1,30.0,89,30.10,10.0,East,5.8,-,N/A,,Clear,90,2012-12-06 09:54:00
4:54 AM,34.0,30.9,89,30.09,10.0,East,8.1,-,N/A,,Clear,90,2012-12-06 10:54:00
5:54 AM,34.0,32.0,92,30.09,9.0,East,8.1,-,N/A,,Clear,80,2012-12-06 11:54:00
6:54 AM,36.0,33.1,89,30.10,8.0,ESE,6.9,-,N/A,,Clear,110,2012-12-06 12:54:00
7:54 AM,37.0,34.0,89,30.09,6.0,East,6.9,-,N/A,,Partly Cloudy,90,2012-12-06 13:54:00
8:54 AM,39.0,36.0,89,30.07,6.0,East,10.4,-,N/A,,Scattered Clouds,100,2012-12-06 14:54:00
9:54 AM,42.1,37.9,85,30.07,6.0,East,8.1,-,N/A,,Partly Cloudy,90,2012-12-06 15:54:00
10:54 AM,46.9,37.9,71,30.04,9.0,SE,5.8,-,N/A,,Mostly Cloudy,130,2012-12-06 16:54:00
11:54 AM,48.0,39.0,71,30.00,10.0,ESE,5.8,-,N/A,,Mostly Cloudy,120,2012-12-06 17:54:00
12:54 PM,50.0,39.9,68,29.98,10.0,East,4.6,-,N/A,,Mostly Cloudy,100,2012-12-06 18:54:00
1:54 PM,52.0,39.0,61,29.95,10.0,ESE,4.6,-,N/A,,Clear,120,2012-12-06 19:54:00
2:54 PM,51.1,41.0,68,29.95,10.0,East,6.9,-,N/A,,Mostly Cloudy,100,2012-12-06 20:54:00
3:54 PM,50.0,42.1,74,29.94,10.0,East,6.9,-,N/A,,Clear,90,2012-12-06 21:54:00
4:54 PM,48.0,42.1,80,29.93,10.0,East,5.8,-,N/A,,Mostly Cloudy,90,2012-12-06 22:54:00
5:54 PM,46.9,42.1,83,29.94,10.0,East,6.9,-,N/A,,Mostly Cloudy,80,2012-12-06 23:54:00
6:54 PM,46.9,42.1,83,29.95,10.0,East,5.8,-,N/A,,Overcast,90,2012-12-07 00:54:00
7:54 PM,46.9,42.1,83,29.96,10.0,East,3.5,-,0.00,Rain,Light Rain,90,2012-12-07 01:54:00
8:54 PM,46.0,42.1,86,29.95,10.0,East,4.6,-,0.00,,Scattered Clouds,100,2012-12-07 02:54:00
9:54 PM,45.0,41.0,86,29.94,10.0,East,3.5,-,N/A,,Clear,80,2012-12-07 03:54:00
10:54 PM,45.0,41.0,86,29.94,10.0,East,5.8,-,N/A,,Overcast,80,2012-12-07 04:54:00
11:54 PM,45.0,41.0,86,29.93,10.0,East,4.6,-,N/A,,Mostly Cloudy,80,2012-12-07 05:54:00